Year,Month,Day,Hour,Minute,Value (Times are PST for temperature in C)
2014,07,12,00,00,18.80
2014,07,12,00,01,18.80
2014,07,12,00,02,18.80
2014,07,12,00,03,18.80
2014,07,12,00,04,18.80
2014,07,12,00,05,18.80
2014,07,12,00,06,18.80
2014,07,12,00,07,18.80
2014,07,12,00,08,18.80
2014,07,12,00,09,18.80
2014,07,12,00,10,18.80
2014,07,12,00,11,18.80
2014,07,12,00,12,18.80
2014,07,12,00,13,18.80
2014,07,12,00,14,18.70
2014,07,12,00,15,18.70
2014,07,12,00,16,18.70
2014,07,12,00,17,18.70
2014,07,12,00,18,18.70
2014,07,12,00,19,18.70
2014,07,12,00,20,18.70
2014,07,12,00,21,18.70
2014,07,12,00,22,18.70
2014,07,12,00,23,18.60
2014,07,12,00,24,18.60
2014,07,12,00,25,18.60
2014,07,12,00,26,18.60
2014,07,12,00,27,18.60
2014,07,12,00,28,18.60
2014,07,12,00,29,18.60
2014,07,12,00,30,18.60
2014,07,12,00,31,18.60
2014,07,12,00,32,18.60
2014,07,12,00,33,18.60
2014,07,12,00,34,18.70
2014,07,12,00,35,18.70
2014,07,12,00,36,18.70
2014,07,12,00,37,18.70
2014,07,12,00,38,18.70
2014,07,12,00,39,18.70
2014,07,12,00,40,18.70
2014,07,12,00,41,18.60
2014,07,12,00,42,18.70
2014,07,12,00,43,18.70
2014,07,12,00,44,18.70
2014,07,12,00,45,18.80
2014,07,12,00,46,18.80
2014,07,12,00,47,18.80
2014,07,12,00,48,18.80
2014,07,12,00,49,18.80
2014,07,12,00,50,18.80
2014,07,12,00,51,18.80
2014,07,12,00,52,18.70
2014,07,12,00,53,18.70
2014,07,12,00,54,18.70
2014,07,12,00,55,18.60
2014,07,12,00,56,18.60
2014,07,12,00,57,18.60
2014,07,12,00,58,18.60
2014,07,12,00,59,18.50
2014,07,12,01,00,18.50
2014,07,12,01,01,18.50
2014,07,12,01,02,18.50
2014,07,12,01,03,18.50
2014,07,12,01,04,18.40
2014,07,12,01,05,18.40
2014,07,12,01,06,18.40
2014,07,12,01,07,18.40
2014,07,12,01,08,18.30
2014,07,12,01,09,18.30
2014,07,12,01,10,18.30
2014,07,12,01,11,18.30
2014,07,12,01,12,18.30
2014,07,12,01,13,18.30
2014,07,12,01,14,18.30
2014,07,12,01,15,18.30
2014,07,12,01,16,18.30
2014,07,12,01,17,18.20
2014,07,12,01,18,18.20
2014,07,12,01,19,18.10
2014,07,12,01,20,18.10
2014,07,12,01,21,18.00
2014,07,12,01,22,18.00
2014,07,12,01,23,18.00
2014,07,12,01,24,17.90
2014,07,12,01,25,17.90
2014,07,12,01,26,17.90
2014,07,12,01,27,17.90
2014,07,12,01,28,17.80
2014,07,12,01,29,17.80
2014,07,12,01,30,17.80
2014,07,12,01,31,17.80
2014,07,12,01,32,17.80
2014,07,12,01,33,17.80
2014,07,12,01,34,17.80
2014,07,12,01,35,17.80
2014,07,12,01,36,17.70
2014,07,12,01,37,17.70
2014,07,12,01,38,17.70
2014,07,12,01,39,17.70
2014,07,12,01,40,17.70
2014,07,12,01,41,17.70
2014,07,12,01,42,17.70
2014,07,12,01,43,17.70
2014,07,12,01,44,17.70
2014,07,12,01,45,17.70
2014,07,12,01,46,17.70
2014,07,12,01,47,17.60
2014,07,12,01,48,17.60
2014,07,12,01,49,17.60
2014,07,12,01,50,17.50
2014,07,12,01,51,17.50
2014,07,12,01,52,17.50
2014,07,12,01,53,17.50
2014,07,12,01,54,17.50
2014,07,12,01,55,17.60
2014,07,12,01,56,17.60
2014,07,12,01,57,17.60
2014,07,12,01,58,17.60
2014,07,12,01,59,17.60
2014,07,12,02,00,17.60
2014,07,12,02,01,17.60
2014,07,12,02,02,17.70
2014,07,12,02,03,17.70
2014,07,12,02,04,17.70
2014,07,12,02,05,17.70
2014,07,12,02,06,17.80
2014,07,12,02,07,17.80
2014,07,12,02,08,17.90
2014,07,12,02,09,17.90
2014,07,12,02,10,18.00
2014,07,12,02,11,18.00
2014,07,12,02,12,18.10
2014,07,12,02,13,18.10
2014,07,12,02,14,18.30
2014,07,12,02,15,18.40
2014,07,12,02,16,18.50
2014,07,12,02,17,18.60
2014,07,12,02,18,18.60
2014,07,12,02,19,18.60
2014,07,12,02,20,18.60
2014,07,12,02,21,18.60
2014,07,12,02,22,18.50
2014,07,12,02,23,18.40
2014,07,12,02,24,18.40
2014,07,12,02,25,18.30
2014,07,12,02,26,18.30
2014,07,12,02,27,18.30
2014,07,12,02,28,18.30
2014,07,12,02,29,18.20
2014,07,12,02,30,18.20
2014,07,12,02,31,18.10
2014,07,12,02,32,18.10
2014,07,12,02,33,18.10
2014,07,12,02,34,18.10
2014,07,12,02,35,18.10
2014,07,12,02,36,18.10
2014,07,12,02,37,18.10
2014,07,12,02,38,18.10
2014,07,12,02,39,18.10
2014,07,12,02,40,18.00
2014,07,12,02,41,17.90
2014,07,12,02,42,17.90
2014,07,12,02,43,17.80
2014,07,12,02,44,17.80
2014,07,12,02,45,17.70
2014,07,12,02,46,17.70
2014,07,12,02,47,17.60
2014,07,12,02,48,17.60
2014,07,12,02,49,17.50
2014,07,12,02,50,17.50
2014,07,12,02,51,17.40
2014,07,12,02,52,17.40
2014,07,12,02,53,17.40
2014,07,12,02,54,17.30
2014,07,12,02,55,17.30
2014,07,12,02,56,17.30
2014,07,12,02,57,17.30
2014,07,12,02,58,17.30
2014,07,12,02,59,17.30
2014,07,12,03,00,17.30
2014,07,12,03,01,17.30
2014,07,12,03,02,17.30
2014,07,12,03,03,17.30
2014,07,12,03,04,17.20
2014,07,12,03,05,17.20
2014,07,12,03,06,17.30
2014,07,12,03,07,17.30
2014,07,12,03,08,17.30
2014,07,12,03,09,17.40
2014,07,12,03,10,17.40
2014,07,12,03,11,17.50
2014,07,12,03,12,17.50
2014,07,12,03,13,17.60
2014,07,12,03,14,17.60
2014,07,12,03,15,17.50
2014,07,12,03,16,17.50
2014,07,12,03,17,17.40
2014,07,12,03,18,17.40
2014,07,12,03,19,17.40
2014,07,12,03,20,17.30
2014,07,12,03,21,17.30
2014,07,12,03,22,17.20
2014,07,12,03,23,17.20
2014,07,12,03,24,17.10
2014,07,12,03,25,17.10
2014,07,12,03,26,17.10
2014,07,12,03,27,17.00
2014,07,12,03,28,17.00
2014,07,12,03,29,16.90
2014,07,12,03,30,16.90
2014,07,12,03,31,16.90
2014,07,12,03,32,16.80
2014,07,12,03,33,16.80
2014,07,12,03,34,16.70
2014,07,12,03,35,16.70
2014,07,12,03,36,16.70
2014,07,12,03,37,16.60
2014,07,12,03,38,16.60
2014,07,12,03,39,16.60
2014,07,12,03,40,16.50
2014,07,12,03,41,16.50
2014,07,12,03,42,16.50
2014,07,12,03,43,16.40
2014,07,12,03,44,16.40
2014,07,12,03,45,16.40
2014,07,12,03,46,16.30
2014,07,12,03,47,16.30
2014,07,12,03,48,16.30
2014,07,12,03,49,16.30
2014,07,12,03,50,16.30
2014,07,12,03,51,16.30
2014,07,12,03,52,16.30
2014,07,12,03,53,16.30
2014,07,12,03,54,16.30
2014,07,12,03,55,16.30
2014,07,12,03,56,16.30
2014,07,12,03,57,16.30
2014,07,12,03,58,16.30
2014,07,12,03,59,16.20
2014,07,12,04,00,16.20
2014,07,12,04,01,16.20
2014,07,12,04,02,16.20
2014,07,12,04,03,16.20
2014,07,12,04,04,16.10
2014,07,12,04,05,16.10
2014,07,12,04,06,16.10
2014,07,12,04,07,16.10
2014,07,12,04,08,16.10
2014,07,12,04,09,16.00
2014,07,12,04,10,16.00
2014,07,12,04,11,16.00
2014,07,12,04,12,16.10
2014,07,12,04,13,16.00
2014,07,12,04,14,16.00
2014,07,12,04,15,16.00
2014,07,12,04,16,16.00
2014,07,12,04,17,16.00
2014,07,12,04,18,16.00
2014,07,12,04,19,16.00
2014,07,12,04,20,15.90
2014,07,12,04,21,15.90
2014,07,12,04,22,15.90
2014,07,12,04,23,15.90
2014,07,12,04,24,15.90
2014,07,12,04,25,15.80
2014,07,12,04,26,15.80
2014,07,12,04,27,15.80
2014,07,12,04,28,15.70
2014,07,12,04,29,15.70
2014,07,12,04,30,15.70
2014,07,12,04,31,15.60
2014,07,12,04,32,15.60
2014,07,12,04,33,15.60
2014,07,12,04,34,15.50
2014,07,12,04,35,15.50
2014,07,12,04,36,15.50
2014,07,12,04,37,15.40
2014,07,12,04,38,15.40
2014,07,12,04,39,15.40
2014,07,12,04,40,15.40
2014,07,12,04,41,15.30
2014,07,12,04,42,15.30
2014,07,12,04,43,15.30
2014,07,12,04,44,15.30
2014,07,12,04,45,15.30
2014,07,12,04,46,15.20
2014,07,12,04,47,15.20
2014,07,12,04,48,15.20
2014,07,12,04,49,15.20
2014,07,12,04,50,15.20
2014,07,12,04,51,15.10
2014,07,12,04,52,15.10
2014,07,12,04,53,15.10
2014,07,12,04,54,15.10
2014,07,12,04,55,15.10
2014,07,12,04,56,15.10
2014,07,12,04,57,15.10
2014,07,12,04,58,15.10
2014,07,12,04,59,15.10
2014,07,12,05,00,15.10
2014,07,12,05,01,15.10
2014,07,12,05,02,15.10
2014,07,12,05,03,15.10
2014,07,12,05,04,15.10
2014,07,12,05,05,15.10
2014,07,12,05,06,15.00
2014,07,12,05,07,15.00
2014,07,12,05,08,15.00
2014,07,12,05,09,15.00
2014,07,12,05,10,14.90
2014,07,12,05,11,14.90
2014,07,12,05,12,14.90
2014,07,12,05,13,14.90
2014,07,12,05,14,14.80
2014,07,12,05,15,14.80
2014,07,12,05,16,14.80
2014,07,12,05,17,14.70
2014,07,12,05,18,14.70
2014,07,12,05,19,14.70
2014,07,12,05,20,14.70
2014,07,12,05,21,14.60
2014,07,12,05,22,14.60
2014,07,12,05,23,14.60
2014,07,12,05,24,14.60
2014,07,12,05,25,14.60
2014,07,12,05,26,14.60
2014,07,12,05,27,14.60
2014,07,12,05,28,14.60
2014,07,12,05,29,14.50
2014,07,12,05,30,14.50
2014,07,12,05,31,14.50
2014,07,12,05,32,14.50
2014,07,12,05,33,14.50
2014,07,12,05,34,14.50
2014,07,12,05,35,14.50
2014,07,12,05,36,14.50
2014,07,12,05,37,14.50
2014,07,12,05,38,14.50
2014,07,12,05,39,14.40
2014,07,12,05,40,14.40
2014,07,12,05,41,14.40
2014,07,12,05,42,14.40
2014,07,12,05,43,14.40
2014,07,12,05,44,14.40
2014,07,12,05,45,14.40
2014,07,12,05,46,14.40
2014,07,12,05,47,14.50
2014,07,12,05,48,14.50
2014,07,12,05,49,14.50
2014,07,12,05,50,14.50
2014,07,12,05,51,14.50
2014,07,12,05,52,14.50
2014,07,12,05,53,14.50
2014,07,12,05,54,14.50
2014,07,12,05,55,14.50
2014,07,12,05,56,14.50
2014,07,12,05,57,14.50
2014,07,12,05,58,14.50
2014,07,12,05,59,14.50
2014,07,12,06,00,14.40
2014,07,12,06,01,14.40
2014,07,12,06,02,14.40
2014,07,12,06,03,14.40
2014,07,12,06,04,14.40
2014,07,12,06,05,14.40
2014,07,12,06,06,14.40
2014,07,12,06,07,14.40
2014,07,12,06,08,14.40
2014,07,12,06,09,14.40
2014,07,12,06,10,14.40
2014,07,12,06,11,14.40
2014,07,12,06,12,14.40
2014,07,12,06,13,14.40
2014,07,12,06,14,14.40
2014,07,12,06,15,14.40
2014,07,12,06,16,14.40
2014,07,12,06,17,14.40
2014,07,12,06,18,14.40
2014,07,12,06,19,14.40
2014,07,12,06,20,14.40
2014,07,12,06,21,14.40
2014,07,12,06,22,14.40
2014,07,12,06,23,14.50
2014,07,12,06,24,14.50
2014,07,12,06,25,14.50
2014,07,12,06,26,14.50
2014,07,12,06,27,14.50
2014,07,12,06,28,14.50
2014,07,12,06,29,14.50
2014,07,12,06,30,14.50
2014,07,12,06,31,14.50
2014,07,12,06,32,14.60
2014,07,12,06,33,14.60
2014,07,12,06,34,14.60
2014,07,12,06,35,14.60
2014,07,12,06,36,14.60
2014,07,12,06,37,14.60
2014,07,12,06,38,14.60
2014,07,12,06,39,14.60
2014,07,12,06,40,14.60
2014,07,12,06,41,14.60
2014,07,12,06,42,14.60
2014,07,12,06,43,14.60
2014,07,12,06,44,14.60
2014,07,12,06,45,14.60
2014,07,12,06,46,14.70
2014,07,12,06,47,14.70
2014,07,12,06,48,14.70
2014,07,12,06,49,14.70
2014,07,12,06,50,14.70
2014,07,12,06,51,14.70
2014,07,12,06,52,14.70
2014,07,12,06,53,14.70
2014,07,12,06,54,14.70
2014,07,12,06,55,14.80
2014,07,12,06,56,14.80
2014,07,12,06,57,14.80
2014,07,12,06,58,14.80
2014,07,12,06,59,14.80
2014,07,12,07,00,14.90
2014,07,12,07,01,14.90
2014,07,12,07,02,14.90
2014,07,12,07,03,14.90
2014,07,12,07,04,14.90
2014,07,12,07,05,14.90
2014,07,12,07,06,14.90
2014,07,12,07,07,15.00
2014,07,12,07,08,15.00
2014,07,12,07,09,15.00
2014,07,12,07,10,15.10
2014,07,12,07,11,15.10
2014,07,12,07,12,15.10
2014,07,12,07,13,15.20
2014,07,12,07,14,15.30
2014,07,12,07,15,15.30
2014,07,12,07,16,15.40
2014,07,12,07,17,15.40
2014,07,12,07,18,15.50
2014,07,12,07,19,15.50
2014,07,12,07,20,15.60
2014,07,12,07,21,15.70
2014,07,12,07,22,15.80
2014,07,12,07,23,15.90
2014,07,12,07,24,16.00
2014,07,12,07,25,16.00
2014,07,12,07,26,16.10
2014,07,12,07,27,16.10
2014,07,12,07,28,16.20
2014,07,12,07,29,16.30
2014,07,12,07,30,16.30
2014,07,12,07,31,16.30
2014,07,12,07,32,16.40
2014,07,12,07,33,16.40
2014,07,12,07,34,16.50
2014,07,12,07,35,16.50
2014,07,12,07,36,16.60
2014,07,12,07,37,16.60
2014,07,12,07,38,16.70
2014,07,12,07,39,16.80
2014,07,12,07,40,16.80
2014,07,12,07,41,16.90
2014,07,12,07,42,16.90
2014,07,12,07,43,17.00
2014,07,12,07,44,17.00
2014,07,12,07,45,17.10
2014,07,12,07,46,17.20
2014,07,12,07,47,17.30
2014,07,12,07,48,17.40
2014,07,12,07,49,17.60
2014,07,12,07,50,17.80
2014,07,12,07,51,17.90
2014,07,12,07,52,18.00
2014,07,12,07,53,18.10
2014,07,12,07,54,18.10
2014,07,12,07,55,18.20
2014,07,12,07,56,18.20
2014,07,12,07,57,18.30
2014,07,12,07,58,18.30
2014,07,12,07,59,18.30
2014,07,12,08,00,18.40
2014,07,12,08,01,18.40
2014,07,12,08,02,18.50
2014,07,12,08,03,18.50
2014,07,12,08,04,18.60
2014,07,12,08,05,18.60
2014,07,12,08,06,18.70
2014,07,12,08,07,18.70
2014,07,12,08,08,18.80
2014,07,12,08,09,18.80
2014,07,12,08,10,18.90
2014,07,12,08,11,18.90
2014,07,12,08,12,19.00
2014,07,12,08,13,19.10
2014,07,12,08,14,19.10
2014,07,12,08,15,19.20
2014,07,12,08,16,19.20
2014,07,12,08,17,19.30
2014,07,12,08,18,19.40
2014,07,12,08,19,19.50
2014,07,12,08,20,19.60
2014,07,12,08,21,19.70
2014,07,12,08,22,19.90
2014,07,12,08,23,20.00
2014,07,12,08,24,20.20
2014,07,12,08,25,20.30
2014,07,12,08,26,20.40
2014,07,12,08,27,20.60
2014,07,12,08,28,20.70
2014,07,12,08,29,20.80
2014,07,12,08,30,20.90
2014,07,12,08,31,21.00
2014,07,12,08,32,21.10
2014,07,12,08,33,21.20
2014,07,12,08,34,21.30
2014,07,12,08,35,21.30
2014,07,12,08,36,21.30
2014,07,12,08,37,21.30
2014,07,12,08,38,21.30
2014,07,12,08,39,21.30
2014,07,12,08,40,21.30
2014,07,12,08,41,21.30
2014,07,12,08,42,21.30
2014,07,12,08,43,21.30
2014,07,12,08,44,21.40
2014,07,12,08,45,21.40
2014,07,12,08,46,21.50
2014,07,12,08,47,21.50
2014,07,12,08,48,21.60
2014,07,12,08,49,21.50
2014,07,12,08,50,21.50
2014,07,12,08,51,21.40
2014,07,12,08,52,21.40
2014,07,12,08,53,21.40
2014,07,12,08,54,21.40
2014,07,12,08,55,21.50
2014,07,12,08,56,21.50
2014,07,12,08,57,21.60
2014,07,12,08,58,21.70
2014,07,12,08,59,21.70
2014,07,12,09,00,21.70
2014,07,12,09,01,21.80
2014,07,12,09,02,21.80
2014,07,12,09,03,21.90
2014,07,12,09,04,21.90
2014,07,12,09,05,22.00
2014,07,12,09,06,22.00
2014,07,12,09,07,22.00
2014,07,12,09,08,22.00
2014,07,12,09,09,22.00
2014,07,12,09,10,22.10
2014,07,12,09,11,22.10
2014,07,12,09,12,22.20
2014,07,12,09,13,22.20
2014,07,12,09,14,22.30
2014,07,12,09,15,22.30
2014,07,12,09,16,22.30
2014,07,12,09,17,22.40
2014,07,12,09,18,22.40
2014,07,12,09,19,22.50
2014,07,12,09,20,22.50
2014,07,12,09,21,22.60
2014,07,12,09,22,22.60
2014,07,12,09,23,22.70
2014,07,12,09,24,22.80
2014,07,12,09,25,22.80
2014,07,12,09,26,22.90
2014,07,12,09,27,23.00
2014,07,12,09,28,23.00
2014,07,12,09,29,23.00
2014,07,12,09,30,23.00
2014,07,12,09,31,23.00
2014,07,12,09,32,22.90
2014,07,12,09,33,22.90
2014,07,12,09,34,22.90
2014,07,12,09,35,22.90
2014,07,12,09,36,22.90
2014,07,12,09,37,22.90
2014,07,12,09,38,22.90
2014,07,12,09,39,22.90
2014,07,12,09,40,22.90
2014,07,12,09,41,23.00
2014,07,12,09,42,22.90
2014,07,12,09,43,22.90
2014,07,12,09,44,22.90
2014,07,12,09,45,22.80
2014,07,12,09,46,22.80
2014,07,12,09,47,22.80
2014,07,12,09,48,22.80
2014,07,12,09,49,22.80
2014,07,12,09,50,22.70
2014,07,12,09,51,22.80
2014,07,12,09,52,22.80
2014,07,12,09,53,22.80
2014,07,12,09,54,22.80
2014,07,12,09,55,22.90
2014,07,12,09,56,23.00
2014,07,12,09,57,23.10
2014,07,12,09,58,23.10
2014,07,12,09,59,23.20
2014,07,12,10,00,23.30
2014,07,12,10,01,23.40
2014,07,12,10,02,23.40
2014,07,12,10,03,23.50
2014,07,12,10,04,23.60
2014,07,12,10,05,23.60
2014,07,12,10,06,23.70
2014,07,12,10,07,23.80
2014,07,12,10,08,23.80
2014,07,12,10,09,23.80
2014,07,12,10,10,23.80
2014,07,12,10,11,23.80
2014,07,12,10,12,23.80
2014,07,12,10,13,23.80
2014,07,12,10,14,23.80
2014,07,12,10,15,23.80
2014,07,12,10,16,23.80
2014,07,12,10,17,23.80
2014,07,12,10,18,23.80
2014,07,12,10,19,23.90
2014,07,12,10,20,23.90
2014,07,12,10,21,24.00
2014,07,12,10,22,24.10
2014,07,12,10,23,24.10
2014,07,12,10,24,24.20
2014,07,12,10,25,24.10
2014,07,12,10,26,24.10
2014,07,12,10,27,24.10
2014,07,12,10,28,24.20
2014,07,12,10,29,24.20
2014,07,12,10,30,24.20
2014,07,12,10,31,24.20
2014,07,12,10,32,24.20
2014,07,12,10,33,24.20
2014,07,12,10,34,24.20
2014,07,12,10,35,24.20
2014,07,12,10,36,24.30
2014,07,12,10,37,24.30
2014,07,12,10,38,24.40
2014,07,12,10,39,24.40
2014,07,12,10,40,24.50
2014,07,12,10,41,24.50
2014,07,12,10,42,24.50
2014,07,12,10,43,24.50
2014,07,12,10,44,24.50
2014,07,12,10,45,24.50
2014,07,12,10,46,24.50
2014,07,12,10,47,24.50
2014,07,12,10,48,24.40
2014,07,12,10,49,24.40
2014,07,12,10,50,24.30
2014,07,12,10,51,24.30
2014,07,12,10,52,24.30
2014,07,12,10,53,24.30
2014,07,12,10,54,24.30
2014,07,12,10,55,24.20
2014,07,12,10,56,24.20
2014,07,12,10,57,24.20
2014,07,12,10,58,24.20
2014,07,12,10,59,24.20
2014,07,12,11,00,24.30
2014,07,12,11,01,24.30
2014,07,12,11,02,24.30
2014,07,12,11,03,24.30
2014,07,12,11,04,24.40
2014,07,12,11,05,24.40
2014,07,12,11,06,24.40
2014,07,12,11,07,24.50
2014,07,12,11,08,24.60
2014,07,12,11,09,24.60
2014,07,12,11,10,24.60
2014,07,12,11,11,24.70
2014,07,12,11,12,24.80
2014,07,12,11,13,24.80
2014,07,12,11,14,24.90
2014,07,12,11,15,24.90
2014,07,12,11,16,24.80
2014,07,12,11,17,24.80
2014,07,12,11,18,24.80
2014,07,12,11,19,24.80
2014,07,12,11,20,24.90
2014,07,12,11,21,24.90
2014,07,12,11,22,24.90
2014,07,12,11,23,25.00
2014,07,12,11,24,25.00
2014,07,12,11,25,25.10
2014,07,12,11,26,25.20
2014,07,12,11,27,25.20
2014,07,12,11,28,25.30
2014,07,12,11,29,25.40
2014,07,12,11,30,25.40
2014,07,12,11,31,25.40
2014,07,12,11,32,25.30
2014,07,12,11,33,25.40
2014,07,12,11,34,25.40
2014,07,12,11,35,25.40
2014,07,12,11,36,25.50
2014,07,12,11,37,25.60
2014,07,12,11,38,25.60
2014,07,12,11,39,25.60
2014,07,12,11,40,25.50
2014,07,12,11,41,25.50
2014,07,12,11,42,25.40
2014,07,12,11,43,25.40
2014,07,12,11,44,25.40
2014,07,12,11,45,25.30
2014,07,12,11,46,25.30
2014,07,12,11,47,25.30
2014,07,12,11,48,25.40
2014,07,12,11,49,25.50
2014,07,12,11,50,25.50
2014,07,12,11,51,25.50
2014,07,12,11,52,25.40
2014,07,12,11,53,25.30
2014,07,12,11,54,25.30
2014,07,12,11,55,25.20
2014,07,12,11,56,25.20
2014,07,12,11,57,25.10
2014,07,12,11,58,25.10
2014,07,12,11,59,25.10
2014,07,12,12,00,25.10
2014,07,12,12,01,25.10
2014,07,12,12,02,25.10
2014,07,12,12,03,25.20
2014,07,12,12,04,25.30
2014,07,12,12,05,25.40
2014,07,12,12,06,25.50
2014,07,12,12,07,25.50
2014,07,12,12,08,25.50
2014,07,12,12,09,25.50
2014,07,12,12,10,25.50
2014,07,12,12,11,25.50
2014,07,12,12,12,25.50
2014,07,12,12,13,25.40
2014,07,12,12,14,25.40
2014,07,12,12,15,25.40
2014,07,12,12,16,25.40
2014,07,12,12,17,25.50
2014,07,12,12,18,25.50
2014,07,12,12,19,25.60
2014,07,12,12,20,25.60
2014,07,12,12,21,25.70
2014,07,12,12,22,25.70
2014,07,12,12,23,25.80
2014,07,12,12,24,25.90
2014,07,12,12,25,26.00
2014,07,12,12,26,26.10
2014,07,12,12,27,26.20
2014,07,12,12,28,26.20
2014,07,12,12,29,26.30
2014,07,12,12,30,26.40
2014,07,12,12,31,26.50
2014,07,12,12,32,26.50
2014,07,12,12,33,26.40
2014,07,12,12,34,26.40
2014,07,12,12,35,26.30
2014,07,12,12,36,26.30
2014,07,12,12,37,26.20
2014,07,12,12,38,26.20
2014,07,12,12,39,26.30
2014,07,12,12,40,26.30
2014,07,12,12,41,26.30
2014,07,12,12,42,26.30
2014,07,12,12,43,26.30
2014,07,12,12,44,26.30
2014,07,12,12,45,26.30
2014,07,12,12,46,26.30
2014,07,12,12,47,26.40
2014,07,12,12,48,26.40
2014,07,12,12,49,26.40
2014,07,12,12,50,26.40
2014,07,12,12,51,26.40
2014,07,12,12,52,26.40
2014,07,12,12,53,26.40
2014,07,12,12,54,26.40
2014,07,12,12,55,26.30
2014,07,12,12,56,26.30
2014,07,12,12,57,26.30
2014,07,12,12,58,26.30
2014,07,12,12,59,26.20
2014,07,12,13,00,26.20
2014,07,12,13,01,26.10
2014,07,12,13,02,26.10
2014,07,12,13,03,26.10
2014,07,12,13,04,26.20
2014,07,12,13,05,26.20
2014,07,12,13,06,26.20
2014,07,12,13,07,26.20
2014,07,12,13,08,26.30
2014,07,12,13,09,26.30
2014,07,12,13,10,26.30
2014,07,12,13,11,26.30
2014,07,12,13,12,26.20
2014,07,12,13,13,26.20
2014,07,12,13,14,26.20
2014,07,12,13,15,26.20
2014,07,12,13,16,26.20
2014,07,12,13,17,26.30
2014,07,12,13,18,26.30
2014,07,12,13,19,26.40
2014,07,12,13,20,26.50
2014,07,12,13,21,26.50
2014,07,12,13,22,26.60
2014,07,12,13,23,26.70
2014,07,12,13,24,26.80
2014,07,12,13,25,26.90
2014,07,12,13,26,27.00
2014,07,12,13,27,27.10
2014,07,12,13,28,27.20
2014,07,12,13,29,27.20
2014,07,12,13,30,27.20
2014,07,12,13,31,27.20
2014,07,12,13,32,27.20
2014,07,12,13,33,27.20
2014,07,12,13,34,27.30
2014,07,12,13,35,27.40
2014,07,12,13,36,27.50
2014,07,12,13,37,27.50
2014,07,12,13,38,27.60
2014,07,12,13,39,27.60
2014,07,12,13,40,27.60
2014,07,12,13,41,27.60
2014,07,12,13,42,27.60
2014,07,12,13,43,27.60
2014,07,12,13,44,27.70
2014,07,12,13,45,27.70
2014,07,12,13,46,27.80
2014,07,12,13,47,27.80
2014,07,12,13,48,27.80
2014,07,12,13,49,27.80
2014,07,12,13,50,27.80
2014,07,12,13,51,27.90
2014,07,12,13,52,27.90
2014,07,12,13,53,27.90
2014,07,12,13,54,28.00
2014,07,12,13,55,28.10
2014,07,12,13,56,28.10
2014,07,12,13,57,28.20
2014,07,12,13,58,28.20
2014,07,12,13,59,28.20
2014,07,12,14,00,28.20
2014,07,12,14,01,28.10
2014,07,12,14,02,28.10
2014,07,12,14,03,28.10
2014,07,12,14,04,28.10
2014,07,12,14,05,28.00
2014,07,12,14,06,27.90
2014,07,12,14,07,27.90
2014,07,12,14,08,27.90
2014,07,12,14,09,27.90
2014,07,12,14,10,27.90
2014,07,12,14,11,28.00
2014,07,12,14,12,28.00
2014,07,12,14,13,28.00
2014,07,12,14,14,27.90
2014,07,12,14,15,27.90
2014,07,12,14,16,27.90
2014,07,12,14,17,27.90
2014,07,12,14,18,27.90
2014,07,12,14,19,28.00
2014,07,12,14,20,28.00
2014,07,12,14,21,28.00
2014,07,12,14,22,28.00
2014,07,12,14,23,28.10
2014,07,12,14,24,28.10
2014,07,12,14,25,28.10
2014,07,12,14,26,28.10
2014,07,12,14,27,28.10
2014,07,12,14,28,28.20
2014,07,12,14,29,28.20
2014,07,12,14,30,28.20
2014,07,12,14,31,28.20
2014,07,12,14,32,28.30
2014,07,12,14,33,28.30
2014,07,12,14,34,28.40
2014,07,12,14,35,28.40
2014,07,12,14,36,28.50
2014,07,12,14,37,28.50
2014,07,12,14,38,28.50
2014,07,12,14,39,28.50
2014,07,12,14,40,28.50
2014,07,12,14,41,28.50
2014,07,12,14,42,28.50
2014,07,12,14,43,28.50
2014,07,12,14,44,28.60
2014,07,12,14,45,28.60
2014,07,12,14,46,28.60
2014,07,12,14,47,28.60
2014,07,12,14,48,28.60
2014,07,12,14,49,28.60
2014,07,12,14,50,28.60
2014,07,12,14,51,28.50
2014,07,12,14,52,28.40
2014,07,12,14,53,28.30
2014,07,12,14,54,28.30
2014,07,12,14,55,28.30
2014,07,12,14,56,28.20
2014,07,12,14,57,28.20
2014,07,12,14,58,28.20
2014,07,12,14,59,28.20
2014,07,12,15,00,28.30
2014,07,12,15,01,28.30
2014,07,12,15,02,28.30
2014,07,12,15,03,28.40
2014,07,12,15,04,28.40
2014,07,12,15,05,28.40
2014,07,12,15,06,28.40
2014,07,12,15,07,28.50
2014,07,12,15,08,28.50
2014,07,12,15,09,28.60
2014,07,12,15,10,28.60
2014,07,12,15,11,28.70
2014,07,12,15,12,28.80
2014,07,12,15,13,28.80
2014,07,12,15,14,28.80
2014,07,12,15,15,28.90
2014,07,12,15,16,29.00
2014,07,12,15,17,29.00
2014,07,12,15,18,29.00
2014,07,12,15,19,29.00
2014,07,12,15,20,29.00
2014,07,12,15,21,29.00
2014,07,12,15,22,29.00
2014,07,12,15,23,28.90
2014,07,12,15,24,28.80
2014,07,12,15,25,28.80
2014,07,12,15,26,28.90
2014,07,12,15,27,29.00
2014,07,12,15,28,29.10
2014,07,12,15,29,29.20
2014,07,12,15,30,29.20
2014,07,12,15,31,29.20
2014,07,12,15,32,29.20
2014,07,12,15,33,29.20
2014,07,12,15,34,29.10
2014,07,12,15,35,29.00
2014,07,12,15,36,29.00
2014,07,12,15,37,28.90
2014,07,12,15,38,28.90
2014,07,12,15,39,28.90
2014,07,12,15,40,28.90
2014,07,12,15,41,28.90
2014,07,12,15,42,28.80
2014,07,12,15,43,28.70
2014,07,12,15,44,28.70
2014,07,12,15,45,28.70
2014,07,12,15,46,28.70
2014,07,12,15,47,28.80
2014,07,12,15,48,28.80
2014,07,12,15,49,28.90
2014,07,12,15,50,28.80
2014,07,12,15,51,28.80
2014,07,12,15,52,28.90
2014,07,12,15,53,28.90
2014,07,12,15,54,28.90
2014,07,12,15,55,28.80
2014,07,12,15,56,28.80
2014,07,12,15,57,28.80
2014,07,12,15,58,28.80
2014,07,12,15,59,28.80
2014,07,12,16,00,28.90
2014,07,12,16,01,28.90
2014,07,12,16,02,28.90
2014,07,12,16,03,29.00
2014,07,12,16,04,29.10
2014,07,12,16,05,29.10
2014,07,12,16,06,29.10
2014,07,12,16,07,29.10
2014,07,12,16,08,29.20
2014,07,12,16,09,29.20
2014,07,12,16,10,29.20
2014,07,12,16,11,29.20
2014,07,12,16,12,29.20
2014,07,12,16,13,29.20
2014,07,12,16,14,29.10
2014,07,12,16,15,29.00
2014,07,12,16,16,29.00
2014,07,12,16,17,28.90
2014,07,12,16,18,28.80
2014,07,12,16,19,28.80
2014,07,12,16,20,28.80
2014,07,12,16,21,28.80
2014,07,12,16,22,28.80
2014,07,12,16,23,28.90
2014,07,12,16,24,28.90
2014,07,12,16,25,29.00
2014,07,12,16,26,29.10
2014,07,12,16,27,29.20
2014,07,12,16,28,29.20
2014,07,12,16,29,29.30
2014,07,12,16,30,29.30
2014,07,12,16,31,29.30
2014,07,12,16,32,29.30
2014,07,12,16,33,29.40
2014,07,12,16,34,29.40
2014,07,12,16,35,29.40
2014,07,12,16,36,29.40
2014,07,12,16,37,29.30
2014,07,12,16,38,29.30
2014,07,12,16,39,29.30
2014,07,12,16,40,29.30
2014,07,12,16,41,29.30
2014,07,12,16,42,29.20
2014,07,12,16,43,29.20
2014,07,12,16,44,29.30
2014,07,12,16,45,29.30
2014,07,12,16,46,29.30
2014,07,12,16,47,29.30
2014,07,12,16,48,29.30
2014,07,12,16,49,29.30
2014,07,12,16,50,29.30
2014,07,12,16,51,29.20
2014,07,12,16,52,29.10
2014,07,12,16,53,29.10
2014,07,12,16,54,29.00
2014,07,12,16,55,29.00
2014,07,12,16,56,29.00
2014,07,12,16,57,29.00
2014,07,12,16,58,29.10
2014,07,12,16,59,29.10
2014,07,12,17,00,29.20
2014,07,12,17,01,29.20
2014,07,12,17,02,29.30
2014,07,12,17,03,29.40
2014,07,12,17,04,29.50
2014,07,12,17,05,29.50
2014,07,12,17,06,29.50
2014,07,12,17,07,29.50
2014,07,12,17,08,29.40
2014,07,12,17,09,29.30
2014,07,12,17,10,29.20
2014,07,12,17,11,29.10
2014,07,12,17,12,29.10
2014,07,12,17,13,29.10
2014,07,12,17,14,29.10
2014,07,12,17,15,29.10
2014,07,12,17,16,29.10
2014,07,12,17,17,29.10
2014,07,12,17,18,29.20
2014,07,12,17,19,29.10